Time,TemperatureF,DewpointF,PressureIn,WindDirection,WindDirectionDegrees,WindSpeedMPH,WindSpeedGustMPH,Humidity,HourlyPrecipIn,Conditions,Clouds,dailyrainin,SoftwareType,DateUTC
2013-02-05 00:00:00,10.4,5.2,29.97,SW,225,2.0,2.9,79,0.00,,CLR,0.00,VWS V14.01,2013-02-05 05:00:00,
2013-02-05 00:01:00,10.2,5.0,29.97,SW,225,2.5,2.9,79,0.00,,CLR,0.00,VWS V14.01,2013-02-05 05:01:00,
2013-02-05 00:02:00,10.2,5.0,29.97,WSW,248,2.0,3.1,79,0.00,,CLR,0.00,VWS V14.01,2013-02-05 05:02:00,
2013-02-05 00:07:00,10.0,4.8,29.97,WSW,248,2.5,3.1,79,0.00,,CLR,0.00,VWS V14.01,2013-02-05 05:07:00,
2013-02-05 00:08:00,10.2,5.0,29.97,WSW,248,2.5,2.5,79,0.00,,CLR,0.00,VWS V14.01,2013-02-05 05:08:00,
2013-02-05 00:13:00,10.0,4.8,29.97,SW,225,2.2,2.9,79,0.00,,CLR,0.00,VWS V14.01,2013-02-05 05:13:00,
2013-02-05 00:18:00,9.9,4.7,29.97,WSW,248,2.0,2.9,79,0.00,,CLR,0.00,VWS V14.01,2013-02-05 05:18:00,
2013-02-05 00:23:00,9.7,4.5,29.97,West,270,0.0,2.9,79,0.00,,CLR,0.00,VWS V14.01,2013-02-05 05:23:00,
2013-02-05 00:29:00,9.3,4.1,29.97,NNW,338,0.0,2.9,79,0.00,,CLR,0.00,VWS V14.01,2013-02-05 05:29:00,
2013-02-05 00:34:00,9.1,4.0,29.97,NNW,338,0.0,2.9,79,0.00,,CLR,0.00,VWS V14.01,2013-02-05 05:34:00,
2013-02-05 00:39:00,8.8,3.6,29.97,NNW,338,0.0,2.9,79,0.00,,CLR,0.00,VWS V14.01,2013-02-05 05:39:00,
2013-02-05 00:44:00,8.6,3.4,29.97,NNW,338,0.0,2.9,79,0.00,,CLR,0.00,VWS V14.01,2013-02-05 05:44:00,
2013-02-05 00:49:00,8.2,3.1,29.97,NE,45,0.0,2.9,79,0.00,,CLR,0.00,VWS V14.01,2013-02-05 05:49:00,
2013-02-05 00:54:00,7.9,2.7,29.97,NE,45,0.0,2.9,79,0.00,,CLR,0.00,VWS V14.01,2013-02-05 05:54:00,
2013-02-05 01:00:00,8.1,2.9,29.97,NE,45,0.0,2.9,79,0.00,,CLR,0.00,VWS V14.01,2013-02-05 06:00:00,
2013-02-05 01:05:00,7.9,2.7,29.97,NNW,338,0.0,2.9,79,0.00,,CLR,0.00,VWS V14.01,2013-02-05 06:05:00,
2013-02-05 01:10:00,7.7,2.6,29.97,NNW,338,0.0,0.0,79,0.00,,CLR,0.00,VWS V14.01,2013-02-05 06:10:00,
2013-02-05 01:15:00,7.2,2.0,29.97,NNW,338,0.0,0.0,79,0.00,,CLR,0.00,VWS V14.01,2013-02-05 06:15:00,
2013-02-05 01:20:00,7.2,2.0,29.97,NNW,338,0.0,0.0,79,0.00,,CLR,0.00,VWS V14.01,2013-02-05 06:20:00,
2013-02-05 01:25:00,7.3,2.2,29.97,SSE,158,1.6,2.0,79,0.00,,CLR,0.00,VWS V14.01,2013-02-05 06:25:00,
2013-02-05 01:31:00,8.1,2.9,29.97,SSE,158,1.3,2.0,79,0.00,,CLR,0.00,VWS V14.01,2013-02-05 06:31:00,
2013-02-05 01:36:00,8.1,2.9,29.97,SSE,158,1.1,2.0,79,0.00,,CLR,0.00,VWS V14.01,2013-02-05 06:36:00,
2013-02-05 02:00:00,7.9,2.7,30.00,WNW,292,0.0,2.0,79,0.00,,CLR,0.00,VWS V14.01,2013-02-05 07:00:00,
2013-02-05 03:00:00,7.0,1.9,30.00,SSW,202,0.0,2.0,79,0.00,,CLR,0.00,VWS V14.01,2013-02-05 08:00:00,
2013-02-05 04:00:00,5.5,0.4,29.97,SW,225,0.0,2.7,79,0.00,,CLR,0.00,VWS V14.01,2013-02-05 09:00:00,
2013-02-05 05:00:00,3.0,-2.0,29.97,SSE,158,1.3,2.5,79,0.00,,CLR,0.00,VWS V14.01,2013-02-05 10:00:00,
2013-02-05 05:04:00,3.2,-1.8,29.97,SSE,158,1.1,2.5,79,0.00,,CLR,0.00,VWS V14.01,2013-02-05 10:04:00,
2013-02-05 06:00:00,2.3,-2.7,29.94,SSE,158,1.1,2.0,79,0.00,,CLR,0.00,VWS V14.01,2013-02-05 11:00:00,
2013-02-05 07:00:00,1.9,-3.1,29.97,SE,135,0.0,1.6,79,0.00,,CLR,0.00,VWS V14.01,2013-02-05 12:00:00,
2013-02-05 07:03:00,9.1,4.0,29.97,SE,135,0.0,0.0,79,0.00,,CLR,0.00,VWS V14.01,2013-02-05 12:03:00,
2013-02-05 07:08:00,9.7,4.5,29.97,South,180,2.2,2.2,79,0.00,,CLR,0.00,VWS V14.01,2013-02-05 12:08:00,
2013-02-05 08:00:00,8.1,2.9,29.97,SE,135,0.0,2.5,79,0.00,,CLR,0.00,VWS V14.01,2013-02-05 13:00:00,
2013-02-05 08:03:00,9.1,4.0,29.97,SE,135,0.0,0.0,79,0.00,,CLR,0.00,VWS V14.01,2013-02-05 13:03:00,
2013-02-05 08:08:00,9.7,4.5,29.97,South,180,2.2,2.2,79,0.00,,CLR,0.00,VWS V14.01,2013-02-05 13:08:00,
2013-02-05 08:18:00,9.7,4.5,29.97,South,180,2.5,2.5,79,0.00,,CLR,0.00,VWS V14.01,2013-02-05 13:18:00,
2013-02-05 08:23:00,10.2,5.0,29.97,SSW,202,2.5,2.7,79,0.00,,CLR,0.00,VWS V14.01,2013-02-05 13:23:00,
2013-02-05 08:28:00,10.8,5.5,29.97,SSW,202,2.2,2.7,79,0.00,,CLR,0.00,VWS V14.01,2013-02-05 13:28:00,
2013-02-05 08:33:00,11.1,5.9,29.94,South,180,4.7,4.7,79,0.00,,CLR,0.00,VWS V14.01,2013-02-05 13:33:00,
2013-02-05 08:38:00,11.3,6.1,29.94,South,180,4.3,5.6,79,0.00,,CLR,0.00,VWS V14.01,2013-02-05 13:38:00,
2013-02-05 08:43:00,11.7,6.4,29.94,SSW,202,5.4,6.7,79,0.00,,CLR,0.00,VWS V14.01,2013-02-05 13:43:00,
2013-02-05 08:48:00,12.2,6.9,29.94,South,180,4.0,6.7,79,0.00,,CLR,0.00,VWS V14.01,2013-02-05 13:48:00,
2013-02-05 08:53:00,12.6,7.3,29.94,South,180,4.3,6.7,79,0.00,,CLR,0.00,VWS V14.01,2013-02-05 13:53:00,
2013-02-05 08:58:00,12.7,7.5,29.94,South,180,4.0,6.7,79,0.00,,CLR,0.00,VWS V14.01,2013-02-05 13:58:00,
2013-02-05 09:00:00,17.6,8.9,29.88,SSW,202,10.7,11.4,68,0.00,,CLR,0.00,VWS V14.01,2013-02-05 14:00:00,
2013-02-05 09:03:00,13.3,8.0,29.94,South,180,4.0,6.7,79,0.00,,CLR,0.00,VWS V14.01,2013-02-05 14:03:00,
2013-02-05 09:08:00,13.6,8.4,29.94,SW,225,4.0,4.0,79,0.00,,CLR,0.00,VWS V14.01,2013-02-05 14:08:00,
2013-02-05 09:13:00,13.8,8.5,29.94,South,180,6.9,7.8,79,0.00,,CLR,0.00,VWS V14.01,2013-02-05 14:13:00,
2013-02-05 09:18:00,14.2,8.9,29.94,South,180,6.5,7.8,79,0.00,,CLR,0.00,VWS V14.01,2013-02-05 14:18:00,
2013-02-05 09:23:00,14.2,8.3,29.94,SSW,202,6.3,8.1,77,0.00,,CLR,0.00,VWS V14.01,2013-02-05 14:23:00,
2013-02-05 09:28:00,14.5,8.4,29.94,South,180,4.3,8.1,76,0.00,,CLR,0.00,VWS V14.01,2013-02-05 14:28:00,
2013-02-05 09:33:00,15.1,8.6,29.91,SSW,202,6.3,8.1,75,0.00,,CLR,0.00,VWS V14.01,2013-02-05 14:33:00,
2013-02-05 09:38:00,15.6,9.1,29.91,SSW,202,6.3,8.5,75,0.00,,CLR,0.00,VWS V14.01,2013-02-05 14:38:00,
2013-02-05 09:43:00,15.8,9.0,29.91,SSW,202,5.6,8.5,74,0.00,,CLR,0.00,VWS V14.01,2013-02-05 14:43:00,
2013-02-05 09:48:00,16.0,8.9,29.91,SSW,202,4.9,8.5,73,0.00,,CLR,0.00,VWS V14.01,2013-02-05 14:48:00,
2013-02-05 09:53:00,16.7,9.3,29.91,SSW,202,6.0,8.5,72,0.00,,CLR,0.00,VWS V14.01,2013-02-05 14:53:00,
2013-02-05 09:58:00,17.1,9.6,29.91,SSW,202,6.9,8.5,72,0.00,,CLR,0.00,VWS V14.01,2013-02-05 14:58:00,
2013-02-05 10:03:00,17.6,9.2,29.88,SSW,202,8.7,9.4,69,0.00,,CLR,0.00,VWS V14.01,2013-02-05 15:03:00,
2013-02-05 10:08:00,17.6,8.5,29.88,SSE,158,7.4,10.7,67,0.00,,CLR,0.00,VWS V14.01,2013-02-05 15:08:00,
2013-02-05 10:13:00,18.1,9.0,29.88,SSW,202,7.6,10.7,67,0.00,,CLR,0.00,VWS V14.01,2013-02-05 15:13:00,
2013-02-05 10:18:00,19.0,8.5,29.91,SSW,202,6.0,10.7,63,0.00,,CLR,0.00,VWS V14.01,2013-02-05 15:18:00,
2013-02-05 10:24:00,19.4,8.5,29.91,SSW,202,6.5,10.7,62,0.00,,CLR,0.00,VWS V14.01,2013-02-05 15:24:00,
2013-02-05 10:29:00,19.4,7.8,29.91,SSE,158,9.6,10.7,60,0.00,,CLR,0.00,VWS V14.01,2013-02-05 15:29:00,
2013-02-05 10:34:00,19.8,7.8,29.91,South,180,9.2,10.7,59,0.00,,CLR,0.00,VWS V14.01,2013-02-05 15:34:00,
2013-02-05 10:39:00,20.3,8.3,29.91,SSW,202,5.6,10.7,59,0.00,,CLR,0.00,VWS V14.01,2013-02-05 15:39:00,
2013-02-05 10:44:00,20.5,8.1,29.91,SSW,202,12.3,13.0,58,0.00,,CLR,0.00,VWS V14.01,2013-02-05 15:44:00,
2013-02-05 10:49:00,20.8,8.4,29.88,South,180,7.6,13.0,58,0.00,,CLR,0.00,VWS V14.01,2013-02-05 15:49:00,
2013-02-05 10:54:00,21.6,8.3,29.88,SSW,202,7.4,13.0,56,0.00,,CLR,0.00,VWS V14.01,2013-02-05 15:54:00,
2013-02-05 10:59:00,23.4,9.6,29.88,SSW,202,6.5,13.0,55,0.00,,CLR,0.00,VWS V14.01,2013-02-05 15:59:00,
2013-02-05 11:00:00,25.2,8.2,29.88,SSW,202,7.8,14.5,48,0.00,,CLR,0.00,VWS V14.01,2013-02-05 16:00:00,
2013-02-05 11:04:00,23.5,8.9,29.88,SW,225,7.4,13.0,53,0.00,,CLR,0.00,VWS V14.01,2013-02-05 16:04:00,
2013-02-05 11:09:00,22.8,7.8,29.88,SSW,202,9.8,13.0,52,0.00,,CLR,0.00,VWS V14.01,2013-02-05 16:09:00,
2013-02-05 11:14:00,23.4,8.8,29.88,SSW,202,8.7,13.0,53,0.00,,CLR,0.00,VWS V14.01,2013-02-05 16:14:00,
2013-02-05 11:19:00,24.4,8.9,29.88,SW,225,8.1,13.0,51,0.00,,CLR,0.00,VWS V14.01,2013-02-05 16:19:00,
2013-02-05 11:24:00,25.0,8.1,29.88,SW,225,9.6,13.0,48,0.00,,CLR,0.00,VWS V14.01,2013-02-05 16:24:00,
2013-02-05 11:29:00,26.1,8.6,29.88,SW,225,9.8,13.0,47,0.00,,CLR,0.00,VWS V14.01,2013-02-05 16:29:00,
2013-02-05 11:34:00,26.1,8.1,29.88,SSW,202,10.3,13.0,46,0.00,,CLR,0.00,VWS V14.01,2013-02-05 16:34:00,
2013-02-05 11:39:00,24.1,6.3,29.88,SW,225,11.2,14.5,46,0.00,,CLR,0.00,VWS V14.01,2013-02-05 16:39:00,
2013-02-05 11:44:00,24.3,6.9,29.88,SW,225,12.8,14.5,47,0.00,,CLR,0.00,VWS V14.01,2013-02-05 16:44:00,
2013-02-05 11:49:00,24.4,7.6,29.88,SW,225,10.5,14.5,48,0.00,,CLR,0.00,VWS V14.01,2013-02-05 16:49:00,
2013-02-05 11:54:00,24.8,7.4,29.88,SSW,202,9.6,14.5,47,0.00,,CLR,0.00,VWS V14.01,2013-02-05 16:54:00,
2013-02-05 11:59:00,24.6,7.3,29.88,SW,225,11.4,14.5,47,0.00,,CLR,0.00,VWS V14.01,2013-02-05 16:59:00,
2013-02-05 12:00:00,26.1,9.1,29.85,SW,225,11.4,15.4,48,0.00,,CLR,0.00,VWS V14.01,2013-02-05 17:00:00,
2013-02-05 12:04:00,25.0,7.6,29.88,SSW,202,8.7,14.5,47,0.00,,CLR,0.00,VWS V14.01,2013-02-05 17:04:00,
2013-02-05 12:09:00,24.8,7.9,29.88,SSW,202,7.6,12.5,48,0.00,,CLR,0.00,VWS V14.01,2013-02-05 17:09:00,
2013-02-05 12:14:00,24.8,7.9,29.88,SSW,202,9.6,13.9,48,0.00,,CLR,0.00,VWS V14.01,2013-02-05 17:14:00,
2013-02-05 12:19:00,25.0,8.1,29.85,SSW,202,7.8,15.2,48,0.00,,CLR,0.00,VWS V14.01,2013-02-05 17:19:00,
2013-02-05 12:24:00,25.7,8.7,29.85,SSW,202,5.8,15.2,48,0.00,,CLR,0.00,VWS V14.01,2013-02-05 17:24:00,
2013-02-05 12:29:00,26.1,9.1,29.85,SW,225,11.0,15.2,48,0.00,,CLR,0.00,VWS V14.01,2013-02-05 17:29:00,
2013-02-05 12:34:00,26.2,9.2,29.85,SSW,202,7.8,15.2,48,0.00,,CLR,0.00,VWS V14.01,2013-02-05 17:34:00,
2013-02-05 12:39:00,26.1,9.1,29.85,SSW,202,12.5,15.2,48,0.00,,CLR,0.00,VWS V14.01,2013-02-05 17:39:00,
2013-02-05 12:44:00,26.6,9.6,29.85,South,180,7.4,15.2,48,0.00,,CLR,0.00,VWS V14.01,2013-02-05 17:44:00,
2013-02-05 12:50:00,27.0,9.4,29.85,SSW,202,12.5,15.2,47,0.00,,CLR,0.00,VWS V14.01,2013-02-05 17:50:00,
2013-02-05 12:55:00,26.4,9.9,29.85,SSW,202,8.5,15.2,49,0.00,,CLR,0.00,VWS V14.01,2013-02-05 17:55:00,
2013-02-05 13:00:00,26.6,9.6,29.85,SSW,202,8.7,15.2,48,0.00,,CLR,0.00,VWS V14.01,2013-02-05 18:00:00,
2013-02-05 13:05:00,26.4,10.3,29.85,SSW,202,10.1,15.2,50,0.00,,CLR,0.00,VWS V14.01,2013-02-05 18:05:00,
2013-02-05 13:10:00,26.1,9.1,29.85,SSW,202,8.5,14.8,48,0.00,,CLR,0.00,VWS V14.01,2013-02-05 18:10:00,
2013-02-05 13:15:00,26.1,10.0,29.85,SSW,202,13.0,15.2,50,0.00,,CLR,0.00,VWS V14.01,2013-02-05 18:15:00,
2013-02-05 13:20:00,25.9,9.8,29.82,SSW,202,10.7,16.3,50,0.00,,CLR,0.00,VWS V14.01,2013-02-05 18:20:00,
2013-02-05 13:25:00,25.9,10.3,29.82,SW,225,9.8,16.3,51,0.00,,CLR,0.00,VWS V14.01,2013-02-05 18:25:00,
2013-02-05 13:30:00,26.4,10.3,29.82,SW,225,10.5,16.3,50,0.00,,CLR,0.00,VWS V14.01,2013-02-05 18:30:00,
2013-02-05 13:35:00,26.4,10.3,29.82,SW,225,10.1,16.3,50,0.00,,CLR,0.00,VWS V14.01,2013-02-05 18:35:00,
2013-02-05 13:40:00,26.4,10.8,29.82,SSW,202,9.6,16.3,51,0.00,,CLR,0.00,VWS V14.01,2013-02-05 18:40:00,
2013-02-05 13:45:00,26.1,10.4,29.82,SW,225,12.5,17.5,51,0.00,,CLR,0.00,VWS V14.01,2013-02-05 18:45:00,
2013-02-05 13:50:00,26.1,10.9,29.82,SW,225,13.4,17.5,52,0.00,,CLR,0.00,VWS V14.01,2013-02-05 18:50:00,
2013-02-05 13:55:00,25.5,10.4,29.82,SW,225,13.4,17.5,52,0.00,,CLR,0.00,VWS V14.01,2013-02-05 18:55:00,
2013-02-05 14:00:00,25.3,10.6,29.82,SW,225,13.2,17.5,53,0.00,,CLR,0.00,VWS V14.01,2013-02-05 19:00:00,
2013-02-05 14:05:00,25.9,11.9,29.82,SW,225,7.6,17.5,55,0.00,,CLR,0.00,VWS V14.01,2013-02-05 19:05:00,
2013-02-05 14:10:00,25.7,10.9,29.82,SSW,202,10.7,13.9,53,0.00,,CLR,0.00,VWS V14.01,2013-02-05 19:10:00,
2013-02-05 14:15:00,26.1,11.3,29.82,SSW,202,10.3,13.9,53,0.00,,CLR,0.00,VWS V14.01,2013-02-05 19:15:00,
2013-02-05 14:20:00,26.4,12.0,29.82,SSW,202,8.1,13.9,54,0.00,,CLR,0.00,VWS V14.01,2013-02-05 19:20:00,
2013-02-05 14:26:00,26.6,11.8,29.82,SSW,202,10.1,13.9,53,0.00,,CLR,0.00,VWS V14.01,2013-02-05 19:26:00,
2013-02-05 14:31:00,26.6,11.8,29.76,SSW,202,7.8,15.4,53,0.00,,CLR,0.00,VWS V14.01,2013-02-05 19:31:00,
2013-02-05 14:36:00,26.8,12.0,29.76,SSW,202,7.8,15.4,53,0.00,,CLR,0.00,VWS V14.01,2013-02-05 19:36:00,
2013-02-05 14:41:00,27.0,11.7,29.76,SW,225,7.8,15.4,52,0.00,,CLR,0.00,VWS V14.01,2013-02-05 19:41:00,
2013-02-05 14:46:00,27.0,12.1,29.79,WSW,248,8.5,15.4,53,0.00,,CLR,0.00,VWS V14.01,2013-02-05 19:46:00,
2013-02-05 14:51:00,26.8,12.8,29.79,SSW,202,10.3,15.4,55,0.00,,CLR,0.00,VWS V14.01,2013-02-05 19:51:00,
2013-02-05 14:56:00,27.3,14.1,29.79,SSW,202,8.5,15.4,57,0.00,,CLR,0.00,VWS V14.01,2013-02-05 19:56:00,
2013-02-05 15:00:00,27.5,16.6,29.80,SW,225,7.6,15.2,63,0.00,,CLR,0.00,VWS V14.01,2013-02-05 20:00:00,
2013-02-05 15:01:00,26.6,13.4,29.79,SW,225,11.4,15.4,57,0.00,,CLR,0.00,VWS V14.01,2013-02-05 20:01:00,
2013-02-05 15:06:00,26.8,14.0,29.79,SW,225,7.4,15.4,58,0.00,,CLR,0.00,VWS V14.01,2013-02-05 20:06:00,
2013-02-05 15:11:00,27.3,14.5,29.79,SSW,202,10.3,12.1,58,0.00,,CLR,0.00,VWS V14.01,2013-02-05 20:11:00,
2013-02-05 15:16:00,27.9,13.8,29.79,SW,225,9.8,12.1,55,0.00,,CLR,0.00,VWS V14.01,2013-02-05 20:16:00,
2013-02-05 15:21:00,27.7,14.0,29.79,SW,225,10.7,12.1,56,0.00,,CLR,0.00,VWS V14.01,2013-02-05 20:21:00,
2013-02-05 15:26:00,28.0,14.8,29.79,SSW,202,7.6,12.1,57,0.00,,CLR,0.00,VWS V14.01,2013-02-05 20:26:00,
2013-02-05 15:31:00,28.0,14.0,29.79,SSW,202,10.5,12.1,55,0.00,,CLR,0.00,VWS V14.01,2013-02-05 20:31:00,
2013-02-05 15:36:00,27.5,14.3,29.79,SW,225,12.5,14.8,57,0.00,,CLR,0.00,VWS V14.01,2013-02-05 20:36:00,
2013-02-05 15:41:00,27.1,14.3,29.79,SSW,202,12.8,14.8,58,0.00,,CLR,0.00,VWS V14.01,2013-02-05 20:41:00,
2013-02-05 15:46:00,27.0,14.6,29.79,SSW,202,7.8,15.2,59,0.00,,CLR,0.00,VWS V14.01,2013-02-05 20:46:00,
2013-02-05 15:51:00,27.1,15.1,29.79,SSW,202,8.5,15.2,60,0.00,,CLR,0.00,VWS V14.01,2013-02-05 20:51:00,
2013-02-05 15:56:00,27.1,15.5,29.79,SW,225,10.1,15.2,61,0.00,,CLR,0.00,VWS V14.01,2013-02-05 20:56:00,
2013-02-05 16:00:00,26.4,18.3,29.82,SW,225,8.5,13.4,71,0.00,,CLR,0.00,VWS V14.01,2013-02-05 21:00:00,
2013-02-05 16:01:00,27.3,15.7,29.79,SW,225,10.1,15.2,61,0.00,,CLR,0.00,VWS V14.01,2013-02-05 21:01:00,
2013-02-05 16:04:00,27.5,16.6,29.79,SW,225,11.0,11.0,63,0.00,,CLR,0.00,VWS V14.01,2013-02-05 21:04:00,
2013-02-05 16:06:00,27.7,16.0,29.79,SW,225,10.3,15.2,61,0.00,,CLR,0.00,VWS V14.01,2013-02-05 21:06:00,
2013-02-05 16:12:00,27.5,16.6,29.79,SW,225,7.8,10.5,63,0.00,,CLR,0.00,VWS V14.01,2013-02-05 21:12:00,
2013-02-05 16:17:00,27.5,16.6,29.79,SW,225,8.5,11.0,63,0.00,,CLR,0.00,VWS V14.01,2013-02-05 21:17:00,
2013-02-05 16:22:00,26.8,16.6,29.79,SSW,202,9.0,12.5,65,0.00,,CLR,0.00,VWS V14.01,2013-02-05 21:22:00,
2013-02-05 16:27:00,26.6,17.1,29.79,SSW,202,10.1,12.5,67,0.00,,CLR,0.00,VWS V14.01,2013-02-05 21:27:00,
2013-02-05 16:32:00,26.4,17.3,29.82,SSW,202,9.8,12.5,68,0.00,,CLR,0.00,VWS V14.01,2013-02-05 21:32:00,
2013-02-05 16:37:00,26.4,17.6,29.82,SSW,202,8.7,12.5,69,0.00,,CLR,0.00,VWS V14.01,2013-02-05 21:37:00,
2013-02-05 16:42:00,26.4,17.6,29.82,SSW,202,9.4,12.5,69,0.00,,CLR,0.00,VWS V14.01,2013-02-05 21:42:00,
2013-02-05 16:47:00,26.4,17.6,29.82,SSW,202,13.4,13.4,69,0.00,,CLR,0.00,VWS V14.01,2013-02-05 21:47:00,
2013-02-05 16:52:00,26.8,18.0,29.82,SSW,202,7.8,13.4,69,0.00,,CLR,0.00,VWS V14.01,2013-02-05 21:52:00,
2013-02-05 16:57:00,26.6,17.8,29.82,SSW,202,9.2,13.4,69,0.00,,CLR,0.00,VWS V14.01,2013-02-05 21:57:00,
2013-02-05 17:00:00,26.2,19.7,29.85,SSW,202,8.1,14.5,76,0.00,,CLR,0.00,VWS V14.01,2013-02-05 22:00:00,
2013-02-05 17:02:00,26.4,18.0,29.82,SSW,202,12.1,13.4,70,0.00,,CLR,0.00,VWS V14.01,2013-02-05 22:02:00,
2013-02-05 17:07:00,26.4,18.3,29.82,SW,225,10.3,10.3,71,0.00,,CLR,0.00,VWS V14.01,2013-02-05 22:07:00,
2013-02-05 17:12:00,26.2,18.5,29.82,SW,225,10.7,13.0,72,0.00,,CLR,0.00,VWS V14.01,2013-02-05 22:12:00,
2013-02-05 17:18:00,26.1,18.3,29.82,SW,225,10.5,13.0,72,0.00,,CLR,0.00,VWS V14.01,2013-02-05 22:18:00,
2013-02-05 17:23:00,26.1,18.6,29.82,SSW,202,11.0,13.0,73,0.00,,CLR,0.00,VWS V14.01,2013-02-05 22:23:00,
2013-02-05 17:28:00,26.1,18.6,29.82,WSW,248,7.6,13.2,73,0.00,,CLR,0.00,VWS V14.01,2013-02-05 22:28:00,
2013-02-05 17:33:00,26.1,18.9,29.82,SW,225,10.7,13.2,74,0.00,,CLR,0.00,VWS V14.01,2013-02-05 22:33:00,
2013-02-05 17:38:00,26.1,18.9,29.82,SSW,202,13.0,14.3,74,0.00,,CLR,0.00,VWS V14.01,2013-02-05 22:38:00,
2013-02-05 17:43:00,26.1,18.9,29.82,SW,225,10.7,14.5,74,0.00,,CLR,0.00,VWS V14.01,2013-02-05 22:43:00,
2013-02-05 17:48:00,26.1,19.2,29.82,SW,225,10.3,14.5,75,0.00,,CLR,0.00,VWS V14.01,2013-02-05 22:48:00,
2013-02-05 17:53:00,26.1,19.2,29.82,SW,225,10.3,14.5,75,0.00,,CLR,0.00,VWS V14.01,2013-02-05 22:53:00,
2013-02-05 17:58:00,26.1,19.2,29.82,SSW,202,9.4,14.5,75,0.00,,CLR,0.00,VWS V14.01,2013-02-05 22:58:00,
2013-02-05 18:00:00,27.0,21.0,29.85,SW,225,7.6,11.0,78,0.00,,CLR,0.00,VWS V14.01,2013-02-05 23:00:00,
2013-02-05 18:03:00,26.1,19.5,29.85,SSW,202,10.3,14.5,76,0.00,,CLR,0.00,VWS V14.01,2013-02-05 23:03:00,
2013-02-05 18:08:00,26.2,19.7,29.85,SW,225,10.3,10.3,76,0.00,,CLR,0.00,VWS V14.01,2013-02-05 23:08:00,
2013-02-05 18:13:00,26.2,20.0,29.85,SW,225,8.7,10.3,77,0.00,,CLR,0.00,VWS V14.01,2013-02-05 23:13:00,
2013-02-05 18:18:00,26.2,20.0,29.85,WSW,248,11.0,11.0,77,0.00,,CLR,0.00,VWS V14.01,2013-02-05 23:18:00,
2013-02-05 18:24:00,26.2,20.0,29.85,SW,225,7.6,11.0,77,0.00,,CLR,0.00,VWS V14.01,2013-02-05 23:24:00,
2013-02-05 18:29:00,26.4,20.2,29.85,SW,225,7.8,11.0,77,0.00,,CLR,0.00,VWS V14.01,2013-02-05 23:29:00,
2013-02-05 18:34:00,26.4,20.2,29.85,SW,225,6.3,11.0,77,0.00,,CLR,0.00,VWS V14.01,2013-02-05 23:34:00,
2013-02-05 18:39:00,26.6,20.4,29.85,WSW,248,8.7,11.0,77,0.00,,CLR,0.00,VWS V14.01,2013-02-05 23:39:00,
2013-02-05 18:44:00,26.6,20.4,29.85,SW,225,6.5,11.0,77,0.00,,CLR,0.00,VWS V14.01,2013-02-05 23:44:00,
2013-02-05 18:49:00,26.8,20.5,29.85,SSW,202,5.6,11.0,77,0.00,,CLR,0.00,VWS V14.01,2013-02-05 23:49:00,
2013-02-05 18:54:00,26.8,20.5,29.85,SW,225,7.8,11.0,77,0.00,,CLR,0.00,VWS V14.01,2013-02-05 23:54:00,
2013-02-05 18:59:00,26.8,20.5,29.85,WSW,248,8.1,11.0,77,0.00,,CLR,0.00,VWS V14.01,2013-02-05 23:59:00,
2013-02-05 19:00:00,27.5,24.4,29.88,West,270,4.0,10.3,88,0.00,,CLR,0.00,VWS V14.01,2013-02-06 00:00:00,
2013-02-05 19:04:00,27.0,21.0,29.85,WSW,248,6.0,11.0,78,0.00,,CLR,0.00,VWS V14.01,2013-02-06 00:04:00,
2013-02-05 19:09:00,27.0,21.0,29.85,SW,225,7.6,8.1,78,0.00,,CLR,0.00,VWS V14.01,2013-02-06 00:09:00,
2013-02-05 19:14:00,27.0,21.6,29.85,WSW,248,8.5,8.7,80,0.00,,CLR,0.00,VWS V14.01,2013-02-06 00:14:00,
2013-02-05 19:20:00,27.0,21.6,29.85,WSW,248,6.5,8.7,80,0.00,,CLR,0.00,VWS V14.01,2013-02-06 00:20:00,
2013-02-05 19:25:00,27.0,21.6,29.85,WSW,248,5.6,8.7,80,0.00,,CLR,0.00,VWS V14.01,2013-02-06 00:25:00,
2013-02-05 19:30:00,27.1,22.1,29.85,WNW,292,3.8,8.7,81,0.00,,CLR,0.00,VWS V14.01,2013-02-06 00:30:00,
2013-02-05 19:35:00,27.3,23.1,29.88,West,270,3.8,10.3,84,0.00,,CLR,0.00,VWS V14.01,2013-02-06 00:35:00,
2013-02-05 19:40:00,27.3,23.4,29.88,WSW,248,5.6,10.3,85,0.00,,CLR,0.00,VWS V14.01,2013-02-06 00:40:00,
2013-02-05 19:45:00,27.5,23.6,29.88,SW,225,3.6,10.3,85,0.00,,CLR,0.00,VWS V14.01,2013-02-06 00:45:00,
2013-02-05 19:50:00,27.5,23.9,29.88,WSW,248,4.3,10.3,86,0.00,,CLR,0.00,VWS V14.01,2013-02-06 00:50:00,
2013-02-05 19:55:00,27.5,24.1,29.88,WSW,248,3.1,10.3,87,0.00,,CLR,0.00,VWS V14.01,2013-02-06 00:55:00,
2013-02-05 20:00:00,27.5,24.4,29.88,West,270,3.4,10.3,88,0.00,,CLR,0.00,VWS V14.01,2013-02-06 01:00:00,
2013-02-05 20:05:00,27.5,24.4,29.88,WSW,248,3.1,10.3,88,0.00,,CLR,0.00,VWS V14.01,2013-02-06 01:05:00,
2013-02-05 20:10:00,27.5,24.4,29.88,WSW,248,4.9,5.8,88,0.00,,CLR,0.00,VWS V14.01,2013-02-06 01:10:00,
2013-02-05 20:16:00,27.7,24.9,29.88,WSW,248,3.6,7.4,89,0.00,,CLR,0.00,VWS V14.01,2013-02-06 01:16:00,
2013-02-05 20:21:00,27.7,24.9,29.88,West,270,2.9,8.5,89,0.00,,CLR,0.00,VWS V14.01,2013-02-06 01:21:00,
2013-02-05 20:26:00,27.5,24.7,29.88,WSW,248,3.4,8.5,89,0.00,,CLR,0.00,VWS V14.01,2013-02-06 01:26:00,
2013-02-05 20:31:00,27.7,25.1,29.88,West,270,3.1,8.5,90,0.00,,CLR,0.00,VWS V14.01,2013-02-06 01:31:00,
2013-02-05 20:36:00,27.7,25.1,29.88,West,270,5.4,8.5,90,0.00,,CLR,0.00,VWS V14.01,2013-02-06 01:36:00,
2013-02-05 20:41:00,27.5,25.2,29.88,West,270,2.9,8.5,91,0.00,,CLR,0.00,VWS V14.01,2013-02-06 01:41:00,
2013-02-05 20:46:00,27.7,25.4,29.91,WNW,292,5.8,10.3,91,0.00,,CLR,0.00,VWS V14.01,2013-02-06 01:46:00,
2013-02-05 20:51:00,27.5,25.0,29.91,NW,315,6.5,10.3,90,0.00,,CLR,0.00,VWS V14.01,2013-02-06 01:51:00,
2013-02-05 20:56:00,27.5,24.4,29.91,WNW,292,5.4,10.3,88,0.00,,CLR,0.00,VWS V14.01,2013-02-06 01:56:00,
2013-02-05 21:00:00,26.2,23.2,29.94,NNW,338,8.7,11.0,88,0.00,,CLR,0.00,VWS V14.01,2013-02-06 02:00:00,
2013-02-05 21:01:00,27.5,24.1,29.88,NW,315,5.8,10.3,87,0.00,,CLR,0.00,VWS V14.01,2013-02-06 02:01:00,
2013-02-05 21:06:00,27.5,23.9,29.88,NW,315,3.6,10.3,86,0.00,,CLR,0.00,VWS V14.01,2013-02-06 02:06:00,
2013-02-05 21:12:00,27.3,23.7,29.88,West,270,4.7,7.2,86,0.00,,CLR,0.00,VWS V14.01,2013-02-06 02:12:00,
2013-02-05 21:17:00,27.3,24.0,29.88,NW,315,5.8,7.6,87,0.00,,CLR,0.00,VWS V14.01,2013-02-06 02:17:00,
2013-02-05 21:22:00,27.1,23.8,29.88,NW,315,6.0,7.6,87,0.00,,CLR,0.00,VWS V14.01,2013-02-06 02:22:00,
2013-02-05 21:27:00,27.1,23.8,29.88,WNW,292,6.0,8.5,87,0.00,,CLR,0.00,VWS V14.01,2013-02-06 02:27:00,
2013-02-05 21:32:00,27.0,23.6,29.91,NW,315,8.1,9.8,87,0.00,,CLR,0.00,VWS V14.01,2013-02-06 02:32:00,
2013-02-05 21:37:00,27.0,23.6,29.91,West,270,6.3,9.8,87,0.00,,CLR,0.00,VWS V14.01,2013-02-06 02:37:00,
2013-02-05 21:42:00,26.8,23.7,29.91,West,270,6.3,9.8,88,0.00,,CLR,0.00,VWS V14.01,2013-02-06 02:42:00,
2013-02-05 21:47:00,26.8,24.0,29.94,WNW,292,5.4,9.8,89,0.00,,CLR,0.00,VWS V14.01,2013-02-06 02:47:00,
2013-02-05 21:52:00,26.6,24.1,29.94,NW,315,6.3,9.8,90,0.00,,CLR,0.00,VWS V14.01,2013-02-06 02:52:00,
2013-02-05 21:57:00,26.6,23.8,29.94,NW,315,8.7,11.0,89,0.00,,CLR,0.00,VWS V14.01,2013-02-06 02:57:00,
2013-02-05 22:00:00,25.0,19.7,30.00,WNW,292,7.6,14.3,80,0.00,,CLR,0.00,VWS V14.01,2013-02-06 03:00:00,
2013-02-05 22:02:00,26.4,23.9,29.94,NW,315,8.5,11.0,90,0.00,,CLR,0.00,VWS V14.01,2013-02-06 03:02:00,
2013-02-05 22:07:00,26.2,23.2,29.94,NW,315,9.6,9.6,88,0.00,,CLR,0.00,VWS V14.01,2013-02-06 03:07:00,
2013-02-05 22:13:00,26.1,21.9,29.94,WNW,292,10.3,12.3,84,0.00,,CLR,0.00,VWS V14.01,2013-02-06 03:13:00,
2013-02-05 22:18:00,25.9,21.4,29.97,NNW,338,7.8,12.3,83,0.00,,CLR,0.00,VWS V14.01,2013-02-06 03:18:00,
2013-02-05 22:23:00,25.9,20.9,29.97,NW,315,8.1,14.3,81,0.00,,CLR,0.00,VWS V14.01,2013-02-06 03:23:00,
2013-02-05 22:28:00,25.7,20.4,29.97,NNW,338,7.2,14.3,80,0.00,,CLR,0.00,VWS V14.01,2013-02-06 03:28:00,
2013-02-05 22:33:00,25.7,20.1,29.97,NW,315,8.7,14.3,79,0.00,,CLR,0.00,VWS V14.01,2013-02-06 03:33:00,
2013-02-05 22:38:00,25.5,19.6,29.97,NNW,338,9.4,14.3,78,0.00,,CLR,0.00,VWS V14.01,2013-02-06 03:38:00,
2013-02-05 22:43:00,25.5,19.3,29.97,NW,315,10.3,14.3,77,0.00,,CLR,0.00,VWS V14.01,2013-02-06 03:43:00,
2013-02-05 22:48:00,25.3,19.1,29.94,NW,315,10.1,14.3,77,0.00,,CLR,0.00,VWS V14.01,2013-02-06 03:48:00,
2013-02-05 22:53:00,25.3,19.5,29.94,NNW,338,7.4,14.3,78,0.00,,CLR,0.00,VWS V14.01,2013-02-06 03:53:00,
2013-02-05 22:58:00,25.3,19.8,29.94,NW,315,8.1,14.3,79,0.00,,CLR,0.00,VWS V14.01,2013-02-06 03:58:00,
2013-02-05 23:00:00,23.2,13.2,30.03,NW,315,7.4,12.8,65,0.00,,CLR,0.00,VWS V14.01,2013-02-06 04:00:00,
2013-02-05 23:04:00,25.0,19.7,30.00,NW,315,5.8,14.3,80,0.00,,CLR,0.00,VWS V14.01,2013-02-06 04:04:00,
2013-02-05 23:09:00,24.8,19.5,30.00,NNW,338,10.7,10.7,80,0.00,,CLR,0.00,VWS V14.01,2013-02-06 04:09:00,
2013-02-05 23:14:00,24.6,19.6,30.00,WNW,292,8.7,10.7,81,0.00,,CLR,0.00,VWS V14.01,2013-02-06 04:14:00,
2013-02-05 23:19:00,24.6,19.9,30.03,NNE,22,7.6,10.7,82,0.00,,CLR,0.00,VWS V14.01,2013-02-06 04:19:00,
2013-02-05 23:24:00,24.3,18.1,30.03,NNW,338,12.8,12.8,77,0.00,,CLR,0.00,VWS V14.01,2013-02-06 04:24:00,
2013-02-05 23:29:00,24.1,17.6,30.03,NW,315,8.1,12.8,76,0.00,,CLR,0.00,VWS V14.01,2013-02-06 04:29:00,
2013-02-05 23:34:00,23.9,17.8,30.03,North,0,6.0,12.8,77,0.00,,CLR,0.00,VWS V14.01,2013-02-06 04:34:00,
2013-02-05 23:39:00,23.7,17.3,30.03,NW,315,8.5,12.8,76,0.00,,CLR,0.00,VWS V14.01,2013-02-06 04:39:00,
2013-02-05 23:44:00,23.5,16.8,30.03,NW,315,7.4,12.8,75,0.00,,CLR,0.00,VWS V14.01,2013-02-06 04:44:00,
2013-02-05 23:49:00,23.5,16.5,30.03,NNW,338,3.8,12.8,74,0.00,,CLR,0.00,VWS V14.01,2013-02-06 04:49:00,
2013-02-05 23:54:00,23.4,16.6,30.03,North,0,4.3,12.8,75,0.00,,CLR,0.00,VWS V14.01,2013-02-06 04:54:00,
2013-02-05 23:59:00,23.4,16.0,30.03,NNE,22,7.6,12.8,73,0.00,,CLR,0.00,VWS V14.01,2013-02-06 04:59:00,